N3FKZ Weather Reports


time (UTC)temp
C
wind
direction
speed
KPH
gust
KPH
rain 1hr
cm
rain 24hr
cm
rain mn
cm
humidity
%
barometer
mb
20211017161029 20 188 6.4 8.0 0.00 0.00 0.00 39 1027.0
20211017160527 20 151 4.8 9.7 0.00 0.00 0.00 40 1027.1
20211017160026 20 180 1.6 8.0 0.00 0.00 0.00 42 1027.2
20211017155530 20 169 6.4 8.0 0.00 0.00 0.00 44 1027.1
20211017155026 20 200 6.4 9.7 0.00 0.00 0.00 46 1027.1
20211017154527 20 170 3.2 8.0 0.00 0.00 0.00 44 1027.2
20211017154026 19 186 6.4 11.3 0.00 0.00 0.00 43 1027.3
20211017153526 19 169 6.4 9.7 0.00 0.00 0.00 45 1027.3
20211017153030 19 148 3.2 11.3 0.00 0.00 0.00 45 1027.4
20211017152527 19 180 4.8 9.7 0.00 0.00 0.00 51 1027.4
20211017151527 18 171 3.2 8.0 0.00 0.00 0.00 53 1027.4
20211017151026 18 173 4.8 11.3 0.00 0.00 0.00 53 1027.3
20211017150527 17 162 4.8 8.0 0.00 0.00 0.00 56 1027.3
20211017150027 17 165 6.4 8.0 0.00 0.00 0.00 56 1027.3
20211017145526 17 171 3.2 9.7 0.00 0.00 0.00 56 1027.2
20211017145026 17 200 3.2 8.0 0.00 0.00 0.00 56 1027.1
20211017144527 17 186 3.2 6.4 0.00 0.00 0.00 62 1027.2
20211017144027 17 171 1.6 4.8 0.00 0.00 0.00 58 1027.1
20211017143526 17 172 1.6 4.8 0.00 0.00 0.00 60 1027.1
20211017143029 17 172 1.6 3.2 0.00 0.00 0.00 60 1027.0
20211017142526 16 5 0.0 0.0 0.00 0.00 0.00 65 1027.0
20211017142026 16 5 0.0 0.0 0.00 0.00 0.00 66 1026.9
20211017141530 15 5 0.0 0.0 0.00 0.00 0.00 68 1026.9
20211017141027 14 5 0.0 0.0 0.00 0.00 0.00 69 1026.8
20211017140529 13 5 0.0 0.0 0.00 0.00 0.00 71 1026.7
20211017140029 13 5 0.0 0.0 0.00 0.00 0.00 68 1026.6
20211017135026 12 5 0.0 0.0 0.00 0.00 0.00 68 1026.5
20211017134527 12 5 0.0 0.0 0.00 0.00 0.00 75 1026.4
20211017134026 11 5 0.0 0.0 0.00 0.00 0.00 85 1026.5
20211017133526 10 5 0.0 0.0 0.00 0.00 0.00 88 1026.4
20211017133026 10 5 0.0 0.0 0.00 0.00 0.00 89 1026.3
20211017132530 8 5 0.0 0.0 0.00 0.00 0.00 90 1026.3
20211017132032 8 5 0.0 0.0 0.00 0.00 0.00 90 1026.3
20211017131529 7 5 0.0 0.0 0.00 0.00 0.00 90 1026.3
20211017131026 7 5 0.0 0.0 0.00 0.00 0.00 90 1026.3
20211017130526 6 5 0.0 0.0 0.00 0.00 0.00 89 1026.1
20211017130026 6 5 0.0 0.0 0.00 0.00 0.00 88 1026.1
20211017125527 6 5 0.0 0.0 0.00 0.00 0.00 88 1026.1
20211017125027 6 5 0.0 0.0 0.00 0.00 0.00 88 1026.0
20211017124527 6 5 0.0 0.0 0.00 0.00 0.00 88 1026.0
20211017124026 6 5 0.0 0.0 0.00 0.00 0.00 88 1026.0
20211017123527 6 5 0.0 0.0 0.00 0.00 0.00 87 1026.1
20211017123029 6 5 0.0 0.0 0.00 0.00 0.00 87 1026.0
20211017122526 6 5 0.0 0.0 0.00 0.00 0.00 87 1026.0
20211017122026 6 5 0.0 0.0 0.00 0.00 0.00 87 1026.0
20211017121529 6 5 0.0 0.0 0.00 0.00 0.00 87 1026.0
20211017121029 6 5 0.0 0.0 0.00 0.00 0.00 87 1025.9
20211017120527 6 5 0.0 0.0 0.00 0.00 0.00 87 1026.0
20211017120027 6 5 0.0 0.0 0.00 0.00 0.00 87 1026.0
20211017115526 6 5 0.0 0.0 0.00 0.00 0.00 87 1026.1
20211017115032 6 5 0.0 0.0 0.00 0.00 0.00 87 1026.1
20211017114526 6 5 0.0 0.0 0.00 0.00 0.00 87 1026.0
20211017114029 6 5 0.0 0.0 0.00 0.00 0.00 87 1026.0
20211017113529 6 5 0.0 0.0 0.00 0.00 0.00 87 1025.9
20211017113026 6 5 0.0 0.0 0.00 0.00 0.00 87 1026.0
20211017112527 6 5 0.0 0.0 0.00 0.00 0.00 87 1025.9
20211017112032 6 5 0.0 0.0 0.00 0.00 0.00 86 1025.9
20211017111526 6 5 0.0 0.0 0.00 0.00 0.00 86 1025.9
20211017111026 6 5 0.0 0.0 0.00 0.00 0.00 86 1025.8
20211017110529 6 5 0.0 0.0 0.00 0.00 0.00 86 1025.7
20211017110030 6 5 0.0 0.0 0.00 0.00 0.00 86 1025.7
20211017105526 6 5 0.0 0.0 0.00 0.00 0.00 86 1025.7
20211017105027 6 5 0.0 0.0 0.00 0.00 0.00 86 1025.7
20211017104530 6 5 0.0 0.0 0.00 0.00 0.00 86 1025.8
20211017104026 6 5 0.0 0.0 0.00 0.00 0.00 86 1025.7
20211017103529 6 5 0.0 0.0 0.00 0.00 0.00 86 1025.9
20211017103029 6 5 0.0 0.0 0.00 0.00 0.00 85 1025.9
20211017102527 6 5 0.0 0.0 0.00 0.00 0.00 85 1025.9
20211017102029 6 5 0.0 0.0 0.00 0.00 0.00 85 1025.9
20211017101530 6 5 0.0 0.0 0.00 0.00 0.00 84 1026.0
20211017101029 6 5 0.0 0.0 0.00 0.00 0.00 84 1026.0
20211017100526 6 5 0.0 0.0 0.00 0.00 0.00 84 1026.0
20211017100029 7 5 0.0 0.0 0.00 0.00 0.00 84 1026.0
20211017095529 7 5 0.0 0.0 0.00 0.00 0.00 84 1026.0
20211017095026 7 5 0.0 0.0 0.00 0.00 0.00 83 1026.0
20211017094532 7 5 0.0 0.0 0.00 0.00 0.00 83 1026.0
20211017094027 7 5 0.0 0.0 0.00 0.00 0.00 83 1025.9
20211017093527 7 5 0.0 0.0 0.00 0.00 0.00 84 1026.1
20211017093027 7 5 0.0 0.0 0.00 0.00 0.00 83 1026.1
20211017092526 7 5 0.0 0.0 0.00 0.00 0.00 83 1026.1
20211017092026 7 5 0.0 0.0 0.00 0.00 0.00 83 1026.0
20211017091526 7 5 0.0 0.0 0.00 0.00 0.00 83 1026.1
20211017091032 7 5 0.0 0.0 0.00 0.00 0.00 83 1026.1
20211017090526 7 5 0.0 0.0 0.00 0.00 0.00 83 1026.1
20211017090029 7 5 0.0 0.0 0.00 0.00 0.00 83 1026.1
20211017085529 7 5 0.0 0.0 0.00 0.00 0.00 83 1026.1
20211017085026 7 5 0.0 0.0 0.00 0.00 0.00 82 1026.0
20211017084527 7 5 0.0 0.0 0.00 0.00 0.00 82 1026.0
20211017084027 7 5 0.0 0.0 0.00 0.00 0.00 82 1026.1
20211017083526 7 5 0.0 0.0 0.00 0.00 0.00 82 1026.1
20211017083026 7 5 0.0 0.0 0.00 0.00 0.00 82 1026.1
20211017082526 7 5 0.0 0.0 0.00 0.00 0.00 82 1026.2
20211017082029 7 5 0.0 0.0 0.00 0.00 0.00 82 1026.2
20211017081527 7 5 0.0 0.0 0.00 0.00 0.00 82 1026.3
20211017081026 8 5 0.0 0.0 0.00 0.00 0.00 81 1026.3
20211017080527 8 5 0.0 0.0 0.00 0.00 0.00 81 1026.3
20211017080027 8 5 0.0 0.0 0.00 0.00 0.00 81 1026.3
20211017075526 8 5 0.0 0.0 0.00 0.00 0.00 80 1026.2
20211017075026 8 5 0.0 0.0 0.00 0.00 0.00 80 1026.2
20211017074530 8 5 0.0 0.0 0.00 0.00 0.00 80 1026.2
20211017074027 8 5 0.0 0.0 0.00 0.00 0.00 80 1026.2
20211017073527 8 5 0.0 0.0 0.00 0.00 0.00 79 1026.3
20211017073026 8 5 0.0 0.0 0.00 0.00 0.00 80 1026.3
20211017072526 8 5 0.0 0.0 0.00 0.00 0.00 80 1026.2
20211017072030 8 5 0.0 0.0 0.00 0.00 0.00 80 1026.4
20211017071533 8 5 0.0 0.0 0.00 0.00 0.00 80 1026.3
20211017071029 8 5 0.0 0.0 0.00 0.00 0.00 80 1026.2
20211017070533 8 5 0.0 0.0 0.00 0.00 0.00 79 1026.2
20211017070027 8 5 0.0 0.0 0.00 0.00 0.00 78 1026.2
20211017065527 8 5 0.0 0.0 0.00 0.00 0.00 78 1026.2
20211017065026 8 5 0.0 0.0 0.00 0.00 0.00 79 1026.2
20211017064527 8 5 0.0 0.0 0.00 0.00 0.00 78 1026.2
20211017064027 8 5 0.0 0.0 0.00 0.00 0.00 78 1026.2
20211017063527 8 5 0.0 0.0 0.00 0.00 0.00 78 1026.2
20211017063026 8 5 0.0 0.0 0.00 0.00 0.00 78 1026.2
20211017062529 8 5 0.0 0.0 0.00 0.00 0.00 77 1026.2
20211017062026 8 5 0.0 0.0 0.00 0.00 0.00 77 1026.2
20211017061526 8 5 0.0 0.0 0.00 0.00 0.00 78 1026.3
20211017061026 8 5 0.0 0.0 0.00 0.00 0.00 77 1026.2
20211017060526 9 5 0.0 0.0 0.00 0.00 0.00 77 1026.2
20211017060027 9 5 0.0 0.0 0.00 0.00 0.00 78 1026.2
20211017055526 9 5 0.0 0.0 0.00 0.00 0.00 77 1026.1
20211017055033 9 5 0.0 0.0 0.00 0.00 0.00 77 1026.1
20211017054527 9 5 0.0 0.0 0.00 0.00 0.00 77 1026.2
20211017054029 9 5 0.0 0.0 0.00 0.00 0.00 77 1026.2
20211017053527 9 5 0.0 0.0 0.00 0.00 0.00 78 1026.2
20211017053026 9 5 0.0 0.0 0.00 0.00 0.00 78 1026.3
20211017052532 9 5 0.0 0.0 0.00 0.00 0.00 79 1026.3
20211017052026 8 5 0.0 0.0 0.00 0.00 0.00 79 1026.3
20211017051526 8 5 0.0 0.0 0.00 0.00 0.00 80 1026.4
20211017051026 8 5 0.0 0.0 0.00 0.00 0.00 79 1026.4
20211017050526 9 5 0.0 0.0 0.00 0.00 0.00 79 1026.3
20211017050030 9 5 0.0 0.0 0.00 0.00 0.00 79 1026.4
20211017045526 9 5 0.0 0.0 0.00 0.00 0.00 79 1026.3
20211017045026 9 5 0.0 0.0 0.00 0.00 0.00 79 1026.4
20211017044530 9 5 0.0 0.0 0.00 0.00 0.00 78 1026.5
20211017044026 9 5 0.0 0.0 0.00 0.00 0.00 77 1026.6
20211017043526 9 5 0.0 0.0 0.00 0.00 0.00 76 1026.6
20211017043027 9 5 0.0 0.0 0.00 0.00 0.00 76 1026.7
20211017042527 9 5 0.0 0.0 0.00 0.00 0.00 76 1026.7
20211017042026 9 5 0.0 0.0 0.00 0.00 0.00 77 1026.6
20211017041530 9 5 0.0 0.0 0.00 0.00 0.00 77 1026.7
20211017041029 10 5 0.0 0.0 0.00 0.00 0.00 77 1026.7
20211017040526 10 5 0.0 0.0 0.00 0.00 0.00 77 1026.8
20211017040027 10 5 0.0 0.0 0.00 0.00 0.00 77 1026.8
20211017035526 10 5 0.0 0.0 0.00 0.00 0.00 77 1026.6
20211017035029 10 5 0.0 0.0 0.00 0.00 0.00 76 1026.7
20211017034529 10 5 0.0 0.0 0.00 0.00 0.00 75 1026.6
20211017034026 10 5 0.0 0.0 0.00 0.00 0.00 75 1026.6
20211017033526 10 5 0.0 0.0 0.00 0.00 0.00 75 1026.6
20211017033026 10 5 0.0 0.0 0.00 0.00 0.00 74 1026.7
20211017032527 10 5 0.0 0.0 0.00 0.00 0.00 75 1026.5
20211017032026 10 5 0.0 0.0 0.00 0.00 0.00 75 1026.6
20211017031530 10 5 0.0 0.0 0.00 0.00 0.00 75 1026.6
20211017031029 10 5 0.0 0.0 0.00 0.00 0.00 74 1026.6
20211017030529 10 5 0.0 0.0 0.00 0.00 0.00 74 1026.5
20211017030026 10 5 0.0 0.0 0.00 0.00 0.00 73 1026.5
20211017025526 11 5 0.0 0.0 0.00 0.00 0.00 72 1026.5
20211017025030 11 5 0.0 0.0 0.00 0.00 0.00 73 1026.5
20211017024529 11 5 0.0 0.0 0.00 0.00 0.00 72 1026.5
20211017024027 11 5 0.0 0.0 0.00 0.00 0.00 71 1026.5
20211017023527 11 5 0.0 0.0 0.00 0.00 0.00 70 1026.5
20211017023026 11 5 0.0 0.0 0.00 0.00 0.00 71 1026.5
20211017022532 11 5 0.0 0.0 0.00 0.00 0.00 70 1026.5
20211017022029 11 5 0.0 0.0 0.00 0.00 0.00 70 1026.5
20211017021526 11 5 0.0 0.0 0.00 0.00 0.00 70 1026.5
20211017021026 11 5 0.0 0.0 0.00 0.00 0.00 69 1026.5
20211017020526 11 5 0.0 0.0 0.00 0.00 0.00 69 1026.5
20211017020029 11 5 0.0 0.0 0.00 0.00 0.00 70 1026.5
20211017015526 11 5 0.0 0.0 0.00 0.00 0.00 70 1026.4
20211017015029 11 5 0.0 0.0 0.00 0.00 0.00 69 1026.4
20211017014526 12 5 0.0 0.0 0.00 0.00 0.00 68 1026.4
20211017014032 12 5 0.0 0.0 0.00 0.00 0.00 68 1026.2
20211017013526 12 5 0.0 0.0 0.00 0.00 0.00 67 1026.3
20211017013027 12 5 0.0 0.0 0.00 0.00 0.00 66 1026.3
20211017012527 12 5 0.0 0.0 0.00 0.00 0.00 66 1026.2
20211017012029 12 5 0.0 0.0 0.00 0.00 0.00 66 1026.2
20211017011526 13 5 0.0 0.0 0.00 0.00 0.00 65 1026.1
20211017011032 13 5 0.0 0.0 0.00 0.00 0.00 65 1026.1
20211017010526 13 5 0.0 0.0 0.00 0.00 0.00 64 1026.1
20211017005527 13 5 0.0 0.0 0.00 0.00 0.00 62 1026.0
20211017005026 14 5 0.0 0.0 0.00 0.00 0.00 61 1026.1
20211017004529 14 5 0.0 0.0 0.00 0.00 0.00 59 1026.0
20211017004027 15 5 0.0 0.0 0.00 0.00 0.00 59 1025.9
20211017003526 15 5 0.0 0.0 0.00 0.00 0.00 56 1025.9
20211017003026 15 5 0.0 0.0 0.00 0.00 0.00 52 1025.8
20211017002527 15 5 0.0 0.0 0.00 0.00 0.00 52 1025.8
20211017002032 16 5 0.0 0.0 0.00 0.00 0.00 50 1025.7
20211017001526 16 5 0.0 0.0 0.00 0.00 0.00 51 1025.7
20211017001026 16 5 0.0 0.0 0.00 0.00 0.00 51 1025.6
20211017000526 17 5 0.0 0.0 0.00 0.00 0.00 52 1025.6
20211017000026 17 5 0.0 0.0 0.00 0.00 0.00 45 1025.7
20211016235529 17 5 0.0 0.0 0.00 0.00 0.00 44 1025.6
20211016235026 18 5 0.0 0.0 0.00 0.00 0.00 46 1025.6
20211016234526 18 5 0.0 0.0 0.00 0.00 0.00 45 1025.7
20211016234029 18 5 0.0 0.0 0.00 0.00 0.00 43 1025.7
20211016233526 18 5 0.0 1.6 0.00 0.00 0.00 43 1025.7
20211016233026 19 5 0.0 3.2 0.00 0.00 0.00 41 1025.8
20211016232526 19 5 3.2 4.8 0.00 0.00 0.00 38 1025.7
20211016232026 20 338 0.0 3.2 0.00 0.00 0.00 40 1025.7
20211016231527 20 328 0.0 6.4 0.00 0.00 0.00 37 1025.6
20211016231026 20 5 0.0 1.6 0.00 0.00 0.00 39 1025.7
20211016230526 20 5 0.0 3.2 0.00 0.00 0.00 37 1025.6
20211016230026 20 5 3.2 6.4 0.00 0.00 0.00 38 1025.6
20211016225527 20 17 1.6 11.3 0.00 0.00 0.00 37 1025.6
20211016225029 20 16 0.0 6.4 0.00 0.00 0.00 37 1025.6
20211016224526 20 11 1.6 6.4 0.00 0.00 0.00 36 1025.6
20211016224026 20 355 0.0 11.3 0.00 0.00 0.00 35 1025.7
20211016223526 21 0 6.4 11.3 0.00 0.00 0.00 36 1025.7
20211016223027 21 311 1.6 8.0 0.00 0.00 0.00 36 1025.7
20211016222526 21 26 3.2 9.7 0.00 0.00 0.00 34 1025.7
20211016222026 21 17 1.6 14.5 0.00 0.00 0.00 33 1025.7
20211016221526 21 32 8.0 9.7 0.00 0.00 0.00 33 1025.7
20211016221032 21 355 3.2 6.4 0.00 0.00 0.00 37 1025.6
20211016220529 21 327 0.0 14.5 0.00 0.00 0.00 35 1025.6
20211016220027 21 26 3.2 16.1 0.00 0.00 0.00 33 1025.6
20211016215526 21 5 4.8 20.9 0.00 0.00 0.00 34 1025.6
20211016215029 21 0 8.0 16.1 0.00 0.00 0.00 37 1025.6
20211016214526 21 355 4.8 17.7 0.00 0.00 0.00 34 1025.6
20211016214026 22 341 9.7 11.3 0.00 0.00 0.00 33 1025.7
20211016213527 22 31 3.2 6.4 0.00 0.00 0.00 33 1025.8
20211016213026 22 355 0.0 8.0 0.00 0.00 0.00 34 1025.8
20211016212526 22 317 0.0 4.8 0.00 0.00 0.00 35 1025.8
20211016212026 22 252 3.2 6.4 0.00 0.00 0.00 34 1025.7
20211016211526 22 318 0.0 14.5 0.00 0.00 0.00 35 1025.9
20211016211026 22 273 1.6 11.3 0.00 0.00 0.00 35 1025.9
20211016210530 22 319 1.6 11.3 0.00 0.00 0.00 35 1025.9
20211016210029 22 15 1.6 14.5 0.00 0.00 0.00 36 1025.9
20211016205529 22 286 0.0 11.3 0.00 0.00 0.00 37 1025.9
20211016205029 22 284 0.0 6.4 0.00 0.00 0.00 33 1026.0
20211016204526 22 313 3.2 16.1 0.00 0.00 0.00 34 1025.9
20211016204033 22 350 3.2 9.7 0.00 0.00 0.00 34 1025.9
20211016203529 22 317 0.0 9.7 0.00 0.00 0.00 36 1025.9
20211016203026 22 348 3.2 14.5 0.00 0.00 0.00 35 1026.0
20211016202526 22 10 4.8 12.9 0.00 0.00 0.00 36 1026.0
20211016202029 22 25 4.8 14.5 0.00 0.00 0.00 32 1026.1
20211016201529 22 344 8.0 11.3 0.00 0.00 0.00 35 1026.3
20211016201026 22 11 8.0 8.0 0.00 0.00 0.00 33 1026.3
20211016200527 22 331 0.0 16.1 0.00 0.00 0.00 34 1026.3
20211016200026 22 346 3.2 11.3 0.00 0.00 0.00 33 1026.2
20211016195527 22 50 3.2 8.0 0.00 0.00 0.00 34 1026.3
20211016195030 22 340 6.4 12.9 0.00 0.00 0.00 34 1026.4
20211016194527 22 5 1.6 14.5 0.00 0.00 0.00 34 1026.5
20211016194026 22 9 0.0 19.3 0.00 0.00 0.00 37 1026.4
20211016193527 22 9 8.0 20.9 0.00 0.00 0.00 32 1026.5
20211016193026 22 155 0.0 9.7 0.00 0.00 0.00 39 1026.5
20211016192526 22 0 4.8 16.1 0.00 0.00 0.00 32 1026.6
20211016192027 22 5 0.0 11.3 0.00 0.00 0.00 36 1026.6
20211016191527 22 355 0.0 16.1 0.00 0.00 0.00 33 1026.8
20211016191026 22 340 9.7 20.9 0.00 0.00 0.00 32 1026.8
20211016190527 22 13 3.2 9.7 0.00 0.00 0.00 36 1026.9
20211016190026 21 298 0.0 8.0 0.00 0.00 0.00 36 1026.9
20211016185526 21 44 6.4 16.1 0.00 0.00 0.00 36 1027.0
20211016185026 21 32 8.0 14.5 0.00 0.00 0.00 36 1027.2
20211016184526 21 327 3.2 17.7 0.00 0.00 0.00 39 1027.3
20211016184027 21 29 16.1 17.7 0.00 0.00 0.00 36 1027.4
20211016183526 21 5 11.3 17.7 0.00 0.00 0.00 36 1027.5
20211016183026 21 355 6.4 17.7 0.00 0.00 0.00 35 1027.4
20211016182529 21 298 0.0 11.3 0.00 0.00 0.00 42 1027.5
20211016182026 21 257 1.6 11.3 0.00 0.00 0.00 40 1027.6
20211016181527 21 22 4.8 19.3 0.00 0.00 0.00 36 1027.9
20211016181026 21 5 0.0 14.5 0.00 0.00 0.00 37 1027.9
20211016180529 21 19 8.0 16.1 0.00 0.00 0.00 36 1028.1
20211016180026 21 13 8.0 16.1 0.00 0.00 0.00 37 1028.1
20211016175526 21 338 9.7 22.5 0.00 0.00 0.00 37 1028.2
20211016175026 21 13 6.4 20.9 0.00 0.00 0.00 35 1028.2
20211016174527 21 317 3.2 16.1 0.00 0.00 0.00 36 1028.2
20211016174029 21 341 0.0 14.5 0.00 0.00 0.00 34 1028.3
20211016173526 21 5 14.5 14.5 0.00 0.00 0.00 39 1028.2
20211016173029 21 307 1.6 17.7 0.00 0.00 0.00 38 1028.3
20211016172526 21 12 4.8 14.5 0.00 0.00 0.00 43 1028.3
20211016172032 20 325 0.0 19.3 0.00 0.00 0.00 45 1028.3
20211016171527 20 0 9.7 17.7 0.00 0.00 0.00 36 1028.4
20211016171026 20 12 4.8 9.7 0.00 0.00 0.00 38 1028.4
20211016170529 21 341 4.8 11.3 0.00 0.00 0.00 39 1028.5
20211016170026 21 9 3.2 8.0 0.00 0.00 0.00 42 1028.6
20211016165527 20 348 0.0 9.7 0.00 0.00 0.00 43 1028.6
20211016165026 20 351 11.3 11.3 0.00 0.00 0.00 41 1028.6
20211016164527 20 49 9.7 16.1 0.00 0.00 0.00 42 1028.6
20211016164026 20 355 3.2 16.1 0.00 0.00 0.00 49 1028.6
20211016163529 20 0 4.8 9.7 0.00 0.00 0.00 47 1028.6
20211016163027 20 329 0.0 11.3 0.00 0.00 0.00 48 1028.6
20211016162527 20 336 3.2 11.3 0.00 0.00 0.00 50 1028.5
20211016162026 19 321 1.6 11.3 0.00 0.00 0.00 51 1028.5
20211016161530 18 26 6.4 19.3 0.00 0.00 0.00 46 1028.5